Regional Weather Roundup
Issued by NWS

Home | Current Version | Previous Version | Graphics & Text | Print | Product List | Glossary On
Versions: 1 2 3 4 5 6 7 8 9 10 11 12 13 14 15 16 17 18 19 20 21 22 23 24 25 26 27 28 29 30 31 32 33 34 35 36 37 38 39 40 41 42 43 44 45 46 47 48 49 50
000
ASUS45 KABQ 021601
RWRNM
WEATHER ROUNDUP FOR NEW MEXICO
NATIONAL WEATHER SERVICE ALBUQUERQUE NM
1000 AM MDT TUE SEP 02 2014

NOTE: "FAIR" MEANS FEW OR NO CLOUDS BELOW 12,000 FEET AGL WITH NO
       SIGNIFICANT WEATHER OR OBSTRUCTIONS TO VISION.

      THIS PRODUCT IS RELEASED AS TWO VERSIONS.  ONE VERSION NEAR
      THE TOP OF THE HOUR CONTAINING PRELIMINARY DATA FROM ALBUQUERQUE
      AND OTHER STATIONS.  A FINAL VERSION WITH ADDITIONAL DATA IS
      ISSUED ABOUT 10 MINUTES AFTER THE HOUR.

NMZ501-503-504-510>518-021700-
NORTHWEST PLATEAU/NORTHCENTRAL MOUNTAINS

CITY           SKY/WX    TMP DP  RH WIND       PRES   REMARKS
FARMINGTON     SUNNY     72  39  30 E5        30.15S
LOS ALAMOS     SUNNY     70  33  26 CALM      30.31R
SANTA FE       SUNNY     74  33  22 N10       30.23S
ANGEL FIRE     FAIR      60  33  36 CALM      30.39F

$$
NMZ402-403-502-505>509-021700-
WESTCENTRAL MOUNTAINS/SOUTHWEST MOUNTAINS

CITY           SKY/WX    TMP DP  RH WIND       PRES   REMARKS
GALLUP         SUNNY     75  38  26 SW8       30.25S
SILVER CITY    SUNNY     82  36  18 NW13      30.18R

$$
NMZ407-409-411-412-021700-
SOUTHERN DESERTS

CITY           SKY/WX    TMP DP  RH WIND       PRES   REMARKS
LORDSBURG      FAIR      81  36  19 NW7       30.09R
DEMING         SUNNY     83  40  21 S5        30.07S
LAS CRUCES     SUNNY     81  33  18 E5        30.08S
HOLLOMAN AFB   SUNNY     82  38  21 W2        30.04S
ALAMOGORDO     SUNNY     82  37  20 S6        30.06S
T OR C         SUNNY     83  38  20 N6        30.11R

$$
NMZ519>523-021700-
CENTRAL VALLEYS/CENTRAL HIGHLANDS

CITY           SKY/WX    TMP DP  RH WIND       PRES   REMARKS
ALBUQUERQUE    MOSUNNY   75  36  24 NW8       30.17S
DOUBLE EAGLE   MOSUNNY   75  36  23 VRB6      30.21R
CLINES CORNERS SUNNY     76  32  20 E8        30.27R
BELEN          FAIR      78  37  22 NW6       30.16R
SOCORRO        FAIR      79  41  25 NE6       30.13S

$$
NMZ524>526-539-540-021700-
SOUTHCENTRAL MOUNTAINS

CITY           SKY/WX    TMP DP  RH WIND       PRES   REMARKS
RUIDOSO        NOT AVBL

$$
NMZ527>531-021700-
NORTHEAST HIGHLANDS/NORTHEAST PLAINS

CITY           SKY/WX    TMP DP  RH WIND       PRES   REMARKS
LAS VEGAS      SUNNY     75  35  23 NE6       30.27R
RATON          SUNNY     73  44  35 E6        30.21F
CLAYTON        SUNNY     72  62  71 NE12      30.15F

$$
NMZ532>537-021700-
EASTCENTRAL PLAINS

CITY           SKY/WX    TMP DP  RH WIND       PRES   REMARKS
TUCUMCARI      PTSUNNY   80  63  55 NE9       30.08F
CANNON AFB     SUNNY     78  62  57 N16       30.08S
CLOVIS AIRPORT   N/A     77  61  57 N13       30.10S

$$
NMZ028-029-538-021700-
SOUTHEAST PLAINS

CITY           SKY/WX    TMP DP  RH WIND       PRES   REMARKS
ROSWELL        SUNNY     81  48  31 NE3       30.02R
CARLSBAD       SUNNY     85  56  37 VRB3      29.97S
HOBBS          SUNNY     82  59  44 S12       30.01S


$$


USA.gov is the U.S. government's official web portal to all federal, state and local government web resources and services.